Skip Page Navigation
NASA JPL Caltech
NASA Logo - Jet Propulsion Laboratory + View the NASA Portal
+ Center for Near-Earth Object Studies
JPL Home Earth Solar System Stars & Galaxies Technology
JPL Solar System Dynamics
BODIES ORBITS EPHEMERIDES TOOLS PHYSICAL DATA DISCOVERY FAQ SITE MAP
JPL Small-Body Database Browser
Search: [ help ]  
120434 (3202 T-3)
Classification: Main-belt Asteroid          SPK-ID: 2120434
Ephemeris | Orbit Diagram | Orbital Elements | Mission Design | Physical Parameters | Discovery Circumstances | Close-Approach Data ]

[ show orbit diagram ]
Orbital Elements at Epoch 2459000.5 (2020-May-31.0) TDB
Reference: JPL 15 (heliocentric ecliptic J2000)
 Element Value Uncertainty (1-sigma)   Units 
e .1388994244477591 7.8235e-08  
a 3.132750258858497 3.56e-08 au
q 2.697613050964483 2.5465e-07 au
i 24.22048708322101 7.5202e-06 deg
node 24.46426548026204 1.3904e-05 deg
peri 196.0740261424265 2.5424e-05 deg
M 41.06609911179321 2.0886e-05 deg
tp 2458769.470180453564
(2019-Oct-12.97018045)
0.00011712 TDB
period 2025.289395282068
5.54
3.4523e-05
9.452e-08
d
yr
n .1777523749636095 3.0299e-09 deg/d
Q 3.56788746675251 4.0545e-08 au
  Orbit Determination Parameters
   # obs. used (total)      587  
   data-arc span      15592 days (42.69 yr)  
   first obs. used      1977-10-07  
   last obs. used      2020-06-15  
   planetary ephem.      DE431  
   SB-pert. ephem.      SB431-N16  
   condition code      0  
   norm. resid. RMS      .59896  
   source      ORB  
   producer      Otto Matic  
   solution date      2020-Jun-24 01:56:58  

Additional Information
 Earth MOID = 1.69761 au 
 Jupiter MOID = 1.4169 au 
 T_jup = 3.062 
[ show covariance matrix ]

Ephemeris | Orbit Diagram | Orbital Elements | Mission Design | Physical Parameters | Discovery Circumstances | Close-Approach Data ]

Physical Parameter Table
Parameter Symbol Value Units Sigma Reference Notes
absolute magnitude H 14.3   n/a MPO264155  

120434 (3202 T-3)          Discovered 1977-Oct-16 by van Houten, C. J., van Houten-Groeneveld, I., Gehrels, T. at Palomar
Reference: 20051116/Numbers.arcLast Updated: 2005-11-21

[ show close-approach data ]
Alternate Designations
 3202 T-3 = 2002 DW3 
Ephemeris | Orbit Diagram | Orbital Elements | Mission Design | Physical Parameters | Discovery Circumstances | Close-Approach Data ]
ABOUT SSD CREDITS/AWARDS PRIVACY/COPYRIGHT GLOSSARY LINKS
FirstGov 2020-Oct-25 09:50 UT
(server date/time)  
NASA Home Page
Site Manager:   Ryan S. Park
Webmaster  Alan B. Chamberlin